STARLINK-11569, 62910

Orbit data source: Space-Track

STARLINK-11569, 62910 is a payload satellite owned by SpaceX/Seattle (US) in LEO that was launched on Sat, 08 Feb 2025 UTC via an FALCON 9 launch vehicle from the Air Force Eastern Test Range (AFETR). Payload-class satellites include a variety of spacecraft equipped with specific instruments for various scientific and technological missions. These include communications satellites like Starlink; space stations such as the ISS; scientific satellites like the Hubble; Earth observation satellites from companies like Planet Labs, Umbra, and HawkEye 360; GPS; miniature CubeSats for education and research; and military/defense satellites.

Loading next visibility...
Identifier
62910, 2025-027D
Orbit
LEO
Last TLE update
9 hours ago
Origin
Manufacturer
SpaceX/Seattle
Mission
Operational Commercial Communications
Bus & Motor
STARLINK V2M, Unknown motor
Mass
730 kg wet, ~700 kg dry
Launch date (UTC)
2025-02-08 (5 months ago)
Launch vehicle
FALCON 9
Launch site
Air Force Eastern Test Range (AFETR)
Object type
Payload
Rocket body
Debris
Shape & HBR
Box + 2 Pan, 29 m
Radar Cross Section
36.964 m², Large (>1 m²)

Expand to show TLE details & history

TLE from 9 hours ago
0 STARLINK-11569
1 62910U 25027D   25181.71126322  .00227390  00000-0  17265-2 0  9991
2 62910  43.0003  66.4023 0001652 266.2605  93.8074 15.70854488 23503
Epoch: 2025-06-30T17:04Z
TLE epoch observation values (Epoch: 2025-06-30T17:04:13.142Z)
Latitude
0.00001°
Longitude
-108.6696°
Altitude
356.299 km
Speed
7.697 km/s
True Right ascension
04h 25m 36s
True Declination
0° 00' 00"
Sunlit
Object was in daylight at epoch
Visualization orbit readout
Latitude
-39.37104°
Longitude
-171.94334°
Altitude
366.727 km
Speed
7.69 km/s
Apparent Right ascension
00h 51m 36s
Apparent Declination
-39° 53' 29"
Sunlit
Object is in full shadow
Visualization observer readout
Local Sidereal Time
13:33:17
Azimuth
93.172° ESE
Elevation
-82.009°
Doppler factor
1
Orbital elements
Apogee altitude
359.548 km
Perigee altitude
357.322 km
Semi-major axis
6,736.572 km
Eccentricity
0.00017
Inclination
43.0003°
RAAN
66.4023°
Arg. of periapsis
266.2605°
True anomaly
Unknown
Mean anomaly
93.8074°
Eccentric anomaly
Unknown
Mean motion
3.92541 °/min
Orbital period
91.71 mins
BSTAR
0.0017265
Loading maneuver chart data...
Loading SW <> Apogee altitude chart data...
Loading historical data...
Loading historical data...
Loading historical data...
Loading historical data...
Loading historical data...
Loading historical data...
Loading historical data...

STARLINK-11569 Visibility forecast

Observer location: undefined°, undefined°

Span
Click to sort rows by Start time (UTC) header in descending order
Start Az.
Max El. time (UTC)
Max El. Az.
Max El.
End time (UTC)
End Az.
4 mins2025-07-01 20:49:14.714Z265.237° W2025-07-01 20:50:14.714Z287.501° WNW40.231°2025-07-01 20:53:14.714Z69.09° E
4 mins2025-07-01 22:25:14.714Z297.764° NW2025-07-01 22:27:14.714Z22.048° NNE33.468°2025-07-01 22:29:14.714Z72.69° E
4 mins2025-07-02 00:01:14.714Z287.273° WNW2025-07-02 00:03:14.714Z141.704° SSE44.78°2025-07-02 00:05:14.714Z110.988° ESE
|